Overview Statistics Trail Chart Weather Telemetry Raw packets
 

This is the latest recevied weather packets stored in our database for station/object OE3CJB-13. If no packets are shown the sender has not sent any weather packets the latest 10 day(s).

<< 20 21 22 23 24 25 26 >>
Time Temp. Humidity Pressure Rain* Wind** Luminosity Snow
1788232557 16.67° C 91% 1183.4 hPa 0 mm - - -
1788231647 16.67° C 93% 1183.4 hPa 0 mm - - -
1788230732 16.67° C 94% 1184.2 hPa 0 mm - - -
1788229868 16.67° C 95% 1184.8 hPa 0 mm - - -
1788228957 16.67° C 96% 1186.1 hPa 0 mm - - -
1788228047 16.67° C 96% 1188.5 hPa 0 mm - - -
1788227133 16.67° C 96% 1189.1 hPa 0 mm - - -
1788226220 16.67° C 96% 1189.7 hPa 0 mm - - -
1788225366 16.67° C 96% 1190.6 hPa 0 mm - - -
1788224446 17.22° C 96% 1192 hPa 0 mm - - -
1788223567 17.22° C 96% 1192.7 hPa 0 mm - - -
1788222620 16.67° C 95% 1194 hPa 0 mm - - -
1788221756 17.22° C 94% 1194.1 hPa 0 mm - - -
1788220846 17.22° C 94% 1194.8 hPa 0 mm - - -
1788219971 17.22° C 93% 1194.9 hPa 0 mm - - -
1788219020 17.22° C 92% 1194.8 hPa 0 mm - - -
1788218156 17.22° C 91% 1194.9 hPa 0 mm - - -
1788217246 17.22° C 90% 1194.8 hPa 0 mm - - -
1788216332 17.78° C 90% 1195.7 hPa 0 mm - - -
1788215420 17.78° C 89% 1195.9 hPa 0 mm - - -
1788214556 18.33° C 87% 1195.1 hPa 0 mm - - -
1788213668 18.33° C 86% 1195.9 hPa 0 mm - - -
1788212768 18.33° C 82% 1196 hPa 0 mm - - -
1788211820 19.44° C 76% 1196.9 hPa 0 mm - - -
1788210961 20.56° C 69% 1196.9 hPa 0 mm - - -

* Rain latest hour (hover to see other rain measurements)
** Current wind speed in m/s (hover to see current wind gust speed)